TimeEDT,TemperatureF,Dew PointF,Humidity,Sea Level PressureIn,VisibilityMPH,Wind Direction,Wind SpeedMPH,Gust SpeedMPH,PrecipitationIn,Events,Conditions,WindDirDegrees,DateUTC
12:54 AM,42.1,36.0,79,30.10,10.0,NW,4.6,-,N/A,,Clear,320,2013-10-05 04:54:00
1:54 AM,39.0,35.1,86,30.12,10.0,Calm,Calm,-,N/A,,Clear,0,2013-10-05 05:54:00
2:54 AM,36.0,34.0,93,30.11,10.0,SSW,3.5,-,N/A,,Clear,210,2013-10-05 06:54:00
3:54 AM,39.0,35.1,86,30.11,10.0,WNW,3.5,-,N/A,,Clear,300,2013-10-05 07:54:00
4:54 AM,37.0,34.0,89,30.12,10.0,WNW,5.8,-,N/A,,Clear,300,2013-10-05 08:54:00
5:54 AM,39.0,35.1,86,30.14,10.0,NW,5.8,-,N/A,,Clear,310,2013-10-05 09:54:00
6:54 AM,35.1,33.1,92,30.14,10.0,Calm,Calm,-,N/A,,Clear,0,2013-10-05 10:54:00
7:54 AM,39.0,36.0,89,30.14,10.0,Calm,Calm,-,N/A,,Clear,0,2013-10-05 11:54:00
8:54 AM,45.0,39.9,82,30.15,10.0,SW,3.5,-,N/A,,Partly Cloudy,230,2013-10-05 12:54:00
9:54 AM,48.0,39.0,71,30.14,10.0,NW,8.1,-,N/A,,Overcast,310,2013-10-05 13:54:00
10:54 AM,48.9,37.9,66,30.14,10.0,NW,5.8,-,N/A,,Overcast,320,2013-10-05 14:54:00
11:54 AM,51.1,37.0,59,30.13,10.0,NW,9.2,-,N/A,,Overcast,310,2013-10-05 15:54:00
12:54 PM,54.0,37.0,53,30.11,10.0,NW,9.2,-,N/A,,Partly Cloudy,320,2013-10-05 16:54:00
1:54 PM,55.9,36.0,47,30.08,10.0,Calm,Calm,-,N/A,,Clear,0,2013-10-05 17:54:00
2:54 PM,57.9,33.1,39,30.07,10.0,NNW,8.1,-,N/A,,Clear,340,2013-10-05 18:54:00
3:54 PM,57.0,34.0,42,30.07,10.0,NW,6.9,-,N/A,,Clear,310,2013-10-05 19:54:00
4:54 PM,57.0,34.0,42,30.08,10.0,NNW,9.2,-,N/A,,Clear,330,2013-10-05 20:54:00
5:54 PM,52.0,30.0,43,30.09,10.0,NNW,10.4,-,N/A,,Clear,340,2013-10-05 21:54:00
6:54 PM,48.9,28.9,46,30.12,10.0,NNW,11.5,-,N/A,,Clear,340,2013-10-05 22:54:00
7:54 PM,45.0,30.0,56,30.14,10.0,NNW,5.8,-,N/A,,Clear,330,2013-10-05 23:54:00
8:54 PM,44.1,32.0,63,30.16,10.0,NNW,9.2,-,N/A,,Clear,340,2013-10-06 00:54:00
9:54 PM,43.0,30.9,62,30.18,10.0,NNW,11.5,-,N/A,,Clear,330,2013-10-06 01:54:00
10:54 PM,41.0,30.9,67,30.19,10.0,NW,6.9,-,N/A,,Clear,320,2013-10-06 02:54:00
11:54 PM,39.0,30.9,73,30.20,10.0,NW,5.8,-,N/A,,Clear,310,2013-10-06 03:54:00